Wind_Speed
11 13 12 12 13 13 13 13 13 13 12 12 13 13 15 16 18 21 23 25 26 27 27 29 32 36 38 38 39 42 42 41 39 36 34 34 34 32 32 32 32 33 35 36 35 34 32 30 30 30 29 28 26 24 25 26 26 25 25 24 22 21 20
12 14 15 14 14 14 14 14 14 13 12 11 12 12 14 14 15 17 18 19 21 22 22 24 27 32 36 37 40 43 44 43 42 41 38 37 35 34 33 32 32 32 34 35 35 34 32 31 30 30 29 29 27 26 26 27 26 26 25 24 23 22 22
12 14 15 15 14 14 15 15 15 14 13 12 12 12 13 13 14 15 16 17 19 20 21 22 24 27 31 35 39 42 44 43 43 44 42 40 37 35 34 34 32 31 32 34 35 35 33 31 31 30 30 29 28 27 27 27 27 27 26 25 25 24 23
12 14 15 15 15 15 15 16 16 15 14 13 13 12 12 13 14 15 15 17 18 19 20 21 22 24 26 31 34 38 42 44 44 46 45 42 40 37 35 35 34 33 32 33 34 34 33 32 32 31 31 30 29 29 28 28 27 27 27 26 26 26 24
14 15 16 16 16 16 17 17 17 16 14 14 14 13 13 13 14 14 14 15 15 16 16 17 20 22 23 25 27 30 36 41 44 46 45 43 43 40 37 36 36 35 33 33 33 34 33 32 32 32 32 31 30 30 30 28 28 28 28 26 27 27 25
16 17 18 17 16 16 17 18 17 16 15 14 14 14 13 13 13 13 13 14 14 14 14 16 18 21 24 25 25 26 29 34 38 43 45 45 45 44 40 37 37 36 35 33 32 33 33 32 32 33 33 32 30 30 31 30 28 28 28 27 27 27 26
17 18 18 17 16 15 17 18 18 17 15 14 14 14 14 13 13 13 13 14 14 13 13 15 18 20 24 26 27 28 28 30 33 37 42 45 47 46 41 37 37 37 35 34 32 32 32 32 32 32 33 33 31 30 31 31 29 28 29 29 28 28 28
16 17 17 16 16 16 18 19 19 18 16 15 15 14 13 13 13 13 13 14 13 12 12 14 16 18 21 24 26 27 27 27 29 31 35 40 45 46 42 38 38 37 36 34 33 32 31 31 31 31 32 33 32 31 30 31 30 29 29 29 29 29 29
16 16 16 15 15 16 18 18 18 17 16 15 15 14 13 13 13 13 13 13 12 11 11 12 13 14 16 19 22 24 25 26 27 27 28 33 42 47 44 40 38 37 36 34 32 31 30 29 29 29 30 31 31 31 30 30 31 31 30 30 30 30 29
15 16 16 15 15 15 16 16 17 16 15 15 15 15 14 14 13 12 11 12 11 10 10 11 11 11 12 14 18 21 21 23 25 26 26 30 39 46 44 40 39 38 36 33 31 30 29 29 30 30 29 29 30 30 29 29 30 31 31 31 31 30 30
14 15 15 15 15 15 15 15 16 15 15 15 15 15 14 13 12 11 10 11 11 10 9 9 9 10 10 10 13 16 17 20 23 24 27 32 39 43 42 39 39 37 35 33 30 29 29 29 30 30 28 28 29 29 29 29 29 30 31 32 32 32 31
14 14 14 14 13 13 14 15 15 15 15 15 15 14 13 12 12 10 11 12 11 10 9 7 6 8 8 8 9 11 11 14 17 20 26 33 39 41 40 39 39 37 34 32 30 29 29 29 30 29 28 28 29 29 29 29 29 29 29 31 32 32 32
13 13 12 11 11 12 13 14 15 14 14 14 14 13 12 11 11 11 11 12 11 9 8 6 4 4 5 6 6 8 8 10 12 16 24 33 39 39 38 37 37 37 34 32 31 30 30 29 29 29 28 29 29 29 29 29 29 29 29 29 30 31 32
13 13 12 11 11 12 13 13 13 13 13 14 13 12 12 11 11 11 11 11 10 9 8 6 4 2 4 5 4 4 6 7 9 12 20 30 35 36 36 35 36 36 34 32 32 31 30 28 27 27 28 29 30 29 29 29 29 29 28 28 28 29 29
13 13 12 12 13 13 13 12 12 11 12 12 12 12 11 11 11 11 11 10 9 8 8 8 6 4 3 4 5 4 3 4 6 9 16 23 28 30 31 31 33 33 32 32 31 31 29 27 26 26 26 28 29 29 29 29 30 29 28 27 26 27 27
14 13 12 12 13 13 12 10 10 10 11 12 12 11 11 10 11 11 11 10 8 7 9 9 8 7 5 2 2 2 2 2 4 7 12 18 22 24 25 26 28 29 30 30 29 28 26 25 25 25 25 27 27 27 28 29 30 30 29 28 26 26 26
14 12 12 11 12 12 11 10 10 11 11 11 11 10 10 10 10 10 10 8 6 7 9 9 8 7 5 3 3 4 4 3 4 6 9 13 15 17 20 22 24 26 27 27 26 25 24 24 25 26 26 26 26 26 28 29 30 29 29 28 27 26 26
14 12 11 11 11 12 11 10 10 10 10 10 10 10 9 9 9 10 9 8 6 7 9 9 8 7 5 4 5 7 6 5 4 6 7 7 8 11 16 19 21 22 23 24 24 24 24 24 25 26 25 25 25 27 29 29 29 29 28 28 27 27 27
14 12 11 11 11 11 11 10 9 9 9 9 9 9 9 9 8 8 8 8 7 8 9 9 9 8 7 7 7 7 6 5 6 7 8 7 8 11 15 18 21 22 23 24 24 25 24 24 25 25 25 25 26 28 29 30 29 28 27 28 28 27 27
15 13 13 13 12 11 10 9 9 9 9 9 9 9 9 9 9 9 9 9 9 8 8 9 9 9 8 8 7 6 5 6 7 9 9 9 10 12 14 16 19 21 23 23 24 25 25 25 25 25 25 25 26 27 27 28 29 27 27 28 28 27 29
16 14 15 14 13 11 10 9 10 10 10 10 9 9 10 10 10 11 11 10 9 9 9 8 8 9 9 9 8 6 5 6 7 8 9 10 11 12 13 14 16 17 19 21 22 24 25 25 24 24 24 24 24 24 25 26 27 27 28 28 28 29 30
15 15 16 15 13 12 10 9 9 9 10 10 9 9 9 10 11 11 10 10 9 9 9 9 8 9 10 10 10 8 7 7 7 8 8 9 10 11 12 12 12 13 14 17 19 21 21 22 22 22 22 22 21 22 23 24 24 25 25 26 28 30 31
13 14 15 14 12 11 10 9 9 9 10 10 9 9 9 10 10 11 10 10 9 9 10 9 8 8 9 10 10 9 8 8 8 8 8 8 9 9 9 10 10 11 12 14 15 17 18 18 18 19 19 20 20 21 22 22 22 22 22 24 27 28 28
13 14 14 13 12 12 12 11 11 10 11 11 10 9 10 10 11 10 11 10 9 9 10 9 9 8 9 9 10 10 9 9 9 9 8 8 8 8 8 9 9 10 11 12 12 13 14 15 15 16 17 19 20 20 21 21 20 20 21 22 23 24 25
14 15 14 12 12 12 13 13 12 12 12 11 11 11 10 11 11 11 10 10 10 10 9 9 9 9 9 9 10 10 10 10 10 10 8 7 8 8 9 10 10 11 11 11 11 11 12 13 14 14 16 17 19 19 19 19 19 20 20 20 20 20 21
14 15 15 12 11 13 14 15 13 12 11 11 11 11 10 11 11 11 10 10 10 10 9 9 9 9 9 9 10 10 11 11 11 11 10 9 9 9 10 11 11 11 11 11 11 11 12 12 13 13 14 16 17 18 18 18 18 19 19 19 18 17 18
15 16 15 13 12 14 16 16 14 11 10 10 11 11 10 11 11 11 11 11 11 10 10 10 9 9 8 8 8 9 9 10 10 11 12 12 11 11 10 10 10 10 10 11 11 11 12 12 12 12 12 13 15 16 15 15 15 16 17 18 17 16 17
16 16 16 15 15 16 17 17 15 13 11 11 12 11 10 10 11 11 12 12 11 11 11 10 9 8 8 7 7 7 7 8 9 10 11 13 13 13 11 10 9 10 11 11 11 11 11 11 11 10 9 9 11 12 12 11 12 14 16 18 17 16 17
14 16 16 16 17 18 18 17 16 14 13 13 12 11 11 10 10 11 11 11 11 12 11 9 8 7 6 6 6 6 7 7 7 8 9 11 12 13 13 11 10 10 10 10 10 10 10 10 10 10 9 8 8 8 9 10 11 12 14 15 15 15 17
11 14 16 17 18 19 18 17 17 15 15 15 13 12 12 11 11 11 10 11 12 12 10 9 8 7 6 6 6 6 6 6 6 7 7 8 10 11 13 13 12 12 11 11 10 9 9 9 9 9 9 9 8 8 9 10 11 12 13 13 13 14 15
6 11 14 16 18 20 21 19 18 17 16 16 14 12 12 13 12 11 10 11 11 11 10 9 9 7 7 7 7 7 6 6 7 6 6 7 8 9 11 12 13 13 12 11 10 10 10 9 9 9 9 9 8 8 9 10 11 12 13 14 14 14 15
8 7 12 15 18 21 23 22 20 19 18 17 15 14 13 13 13 12 10 11 10 9 9 9 8 8 7 7 7 7 7 6 6 7 7 7 7 8 9 10 11 12 11 11 10 11 10 10 10 10 10 10 9 10 10 11 12 13 14 16 16 16 16
17 11 10 13 17 21 24 25 23 22 20 19 17 15 14 14 14 13 12 11 11 9 9 9 8 7 7 7 7 7 7 7 7 7 7 7 7 7 7 8 8 9 9 10 10 10 9 9 9 10 10 10 11 11 11 12 13 14 15 15 16 15 15
21 18 15 13 13 18 24 26 26 24 22 20 18 16 15 15 15 15 14 13 12 10 10 9 8 7 6 6 7 8 8 8 7 7 8 8 7 7 6 6 7 7 8 9 9 9 9 9 9 9 9 9 9 9 9 10 11 12 12 12 12 11 11
24 21 19 17 16 15 19 25 28 27 25 22 19 18 16 16 16 16 15 14 13 12 11 10 9 8 6 6 7 8 9 9 9 8 8 8 8 8 7 7 7 7 8 9 9 9 9 9 9 9 8 8 8 8 8 9 10 11 10 10 10 10 10
26 24 22 20 19 18 18 21 26 29 27 23 20 19 18 17 17 18 17 15 14 13 12 10 10 9 8 7 8 9 10 10 10 9 9 8 8 7 7 7 8 8 8 8 8 8 9 9 9 9 9 9 8 8 9 9 10 10 10 10 11 12 12
26 25 24 23 22 22 20 19 23 28 30 27 23 20 18 18 18 19 18 16 14 13 12 11 11 11 10 9 9 9 10 10 10 10 10 9 9 8 7 7 7 7 7 7 7 7 7 8 8 8 9 9 9 9 9 9 9 10 10 9 10 10 11
27 25 24 23 23 24 21 18 21 26 29 28 25 22 20 19 19 19 18 15 13 13 13 12 12 12 12 11 10 10 10 10 10 10 10 11 10 9 8 8 7 7 7 7 7 7 7 7 7 7 7 8 8 9 10 10 10 10 10 9 8 8 8
Wind_Direction
212 204 202 203 208 211 209 209 212 215 220 228 236 240 242 243 241 242 243 244 248 251 250 249 246 243 242 243 243 241 238 236 234 232 232 231 226 223 222 220 219 217 215 214 213 212 211 211 212 213 214 215 217 217 215 215 216 219 220 221 224 226 226
214 209 206 205 205 204 203 205 209 211 213 218 225 232 238 243 244 245 247 250 253 254 253 252 250 249 248 246 244 242 239 238 235 232 232 232 227 224 224 223 221 219 217 216 215 215 214 213 214 214 214 215 216 216 215 216 218 219 219 221 224 227 229
214 210 206 206 206 203 203 204 207 210 211 211 215 224 233 241 245 247 249 251 253 254 253 251 250 250 251 249 245 242 241 240 238 234 233 232 227 224 224 224 223 222 220 218 218 217 217 216 216 216 215 216 217 216 215 216 218 219 219 221 224 226 230
212 210 207 209 209 205 206 208 211 213 214 214 216 223 232 238 241 244 248 251 251 252 250 248 247 248 251 250 246 242 240 240 239 237 236 233 228 225 224 222 222 223 221 220 220 219 219 218 218 218 217 217 218 218 217 216 217 219 220 222 224 225 228
212 210 209 211 211 208 208 211 216 218 217 218 219 224 230 234 238 244 251 255 255 255 253 250 247 245 248 251 248 243 240 239 238 236 236 235 230 227 227 223 220 222 222 221 221 220 219 219 219 218 218 218 219 219 218 217 217 218 220 222 224 225 226
215 213 213 214 213 214 214 214 219 221 221 222 223 226 231 235 240 246 254 257 258 261 259 256 252 248 248 249 247 244 240 238 237 235 236 236 232 228 226 224 221 221 221 220 220 220 219 219 219 219 219 219 219 220 219 219 219 219 220 221 224 225 226
223 218 217 217 218 220 219 218 221 223 224 225 226 230 235 238 241 247 255 259 259 261 262 261 261 258 254 250 247 244 241 239 237 235 234 234 232 230 226 224 221 220 220 219 219 219 218 218 219 220 221 220 220 221 221 221 220 220 221 222 224 226 227
231 226 222 222 222 223 223 222 223 224 226 229 233 237 241 244 245 248 255 257 256 259 263 266 268 265 257 250 246 246 246 243 238 236 234 231 230 229 226 223 222 220 219 219 218 218 218 219 219 220 221 222 222 222 223 223 223 223 224 224 226 226 227
235 230 226 226 225 227 227 225 225 225 228 233 239 243 246 248 248 250 253 254 255 259 262 265 270 271 260 246 242 245 247 245 239 237 236 232 229 227 223 221 222 220 218 218 218 218 219 219 220 221 222 222 223 223 224 225 226 226 227 227 227 227 228
236 230 228 228 228 229 228 224 224 225 228 234 240 245 247 247 248 253 255 254 255 257 260 265 272 275 267 251 243 243 244 244 241 236 234 230 226 224 220 218 220 220 217 217 218 218 218 218 220 221 221 222 223 224 225 226 228 228 230 230 230 230 230
232 229 229 230 229 227 223 221 223 224 229 235 240 244 246 245 247 256 257 251 251 252 256 269 279 279 279 270 253 244 240 241 239 235 233 228 222 219 215 214 218 218 217 217 217 217 217 218 220 222 220 219 221 223 224 226 227 228 230 231 232 233 233
225 226 228 229 225 220 218 219 222 225 230 235 240 243 243 244 247 254 254 245 244 247 251 265 283 283 290 292 266 247 244 242 239 241 236 223 216 213 209 211 216 217 216 215 215 216 217 218 222 223 221 219 220 222 224 226 227 228 229 230 232 234 235
224 226 225 224 220 216 216 218 221 226 232 236 239 239 238 241 244 247 248 243 238 240 246 255 277 292 306 310 279 255 261 256 246 242 225 209 206 207 205 209 215 216 216 216 215 217 218 219 222 222 222 222 221 220 223 226 228 229 230 230 231 233 235
220 220 217 216 217 217 217 219 223 228 233 236 236 234 234 236 237 238 240 240 233 230 235 242 247 272 322 337 323 279 272 263 244 227 205 196 198 202 202 207 215 217 219 218 218 219 219 220 223 223 224 224 222 221 223 225 228 229 229 229 229 231 233
212 213 212 214 216 219 221 222 226 228 231 234 232 231 233 233 231 230 233 236 232 222 223 232 238 242 272 345 1 343 297 260 233 215 201 197 200 202 204 210 216 219 221 220 221 221 220 222 225 226 227 225 223 223 224 226 228 228 228 228 228 230 233
208 208 213 220 220 221 223 223 227 230 229 230 229 230 234 231 225 224 228 235 235 223 219 225 232 242 253 289 342 320 278 236 221 210 206 207 208 206 207 212 217 221 223 223 224 225 225 226 228 229 229 226 224 225 225 227 228 227 228 228 230 234 237
206 208 218 227 223 219 221 222 225 229 228 227 228 228 230 227 220 219 222 226 227 223 223 223 226 236 247 248 237 230 221 220 228 220 215 218 219 214 212 214 219 223 225 225 227 228 230 231 232 234 234 230 229 230 229 229 228 226 227 229 232 236 239
207 211 220 222 215 211 215 220 224 229 228 226 227 226 223 217 213 213 214 212 213 219 223 223 222 222 223 224 229 229 222 217 224 229 222 216 215 215 215 219 223 225 227 228 229 232 234 233 233 235 235 233 234 236 235 233 231 229 230 232 234 237 240
210 209 209 206 205 205 210 217 224 227 224 223 224 221 216 210 207 206 202 200 206 216 222 222 218 212 207 207 221 231 230 220 220 225 221 210 205 208 211 216 222 225 227 229 232 234 236 236 234 232 231 231 235 238 238 236 234 233 234 236 237 239 241
212 205 200 199 201 204 208 213 216 217 217 218 218 213 208 201 194 192 193 198 205 211 218 219 215 212 207 202 209 220 225 224 222 223 221 215 214 215 216 218 222 226 229 231 234 235 237 238 238 235 232 231 233 237 239 238 236 234 236 239 241 242 243
212 204 201 200 201 203 205 208 210 211 213 215 215 212 208 200 194 194 197 201 206 208 210 211 211 211 208 203 202 205 213 218 218 218 216 213 215 218 219 221 223 225 228 231 234 237 238 239 239 237 235 232 232 236 239 238 236 234 235 239 242 243 243
215 206 203 201 202 203 203 204 206 206 210 215 216 215 210 205 201 202 201 200 203 206 205 205 206 208 208 205 201 199 201 203 202 205 208 210 215 216 214 216 219 220 223 226 229 232 234 235 235 234 233 233 233 235 237 236 233 232 233 237 239 240 241
223 209 206 204 205 207 205 202 201 203 209 214 214 212 211 209 204 201 199 198 200 203 205 204 203 204 206 206 204 202 202 198 194 196 200 205 212 213 211 212 212 213 218 223 226 229 231 232 233 233 235 236 236 236 235 232 230 229 230 233 236 239 241
227 216 214 210 207 207 206 204 201 203 210 212 210 209 210 210 207 200 198 198 198 202 206 205 202 202 202 201 202 203 201 198 197 198 198 199 203 205 207 209 210 210 213 221 228 232 234 235 235 235 235 234 233 232 231 229 228 229 229 232 238 242 245
227 221 219 216 213 211 210 210 206 206 211 213 211 210 210 210 208 202 198 197 197 202 206 204 202 203 202 200 201 203 203 201 200 199 194 189 191 198 203 205 205 206 209 214 219 221 224 227 229 230 230 229 229 230 230 230 230 229 231 236 244 248 247
227 223 220 219 218 214 214 215 211 207 209 210 213 214 211 210 208 201 196 196 197 199 200 200 200 201 203 204 204 208 211 208 203 199 193 188 188 193 199 202 203 204 207 208 207 209 215 220 225 228 229 229 229 229 230 232 232 232 235 239 244 248 247
227 225 226 228 223 214 214 216 213 209 206 207 215 220 214 210 208 200 194 194 194 193 195 198 199 196 196 199 200 203 210 212 209 203 197 192 193 196 199 202 205 210 213 212 208 210 215 220 227 232 232 230 229 228 228 231 231 229 228 229 233 240 244
227 227 231 232 222 214 214 215 213 209 204 203 213 221 219 215 208 200 196 192 189 191 197 199 199 194 192 192 192 194 198 203 206 205 202 200 200 202 202 201 204 209 212 214 215 214 214 216 220 222 222 222 225 224 223 224 222 220 221 225 227 232 239
230 232 234 231 220 214 215 217 215 208 202 203 211 217 220 218 212 204 197 188 187 195 201 200 199 201 200 196 193 192 193 196 200 203 205 207 207 206 205 203 205 210 213 215 217 216 213 214 215 213 208 206 205 206 209 214 218 221 226 229 228 230 237
235 236 235 232 225 219 219 222 220 214 207 205 209 214 217 216 217 214 199 187 191 200 201 200 203 210 214 214 210 200 195 195 198 199 201 206 209 209 208 207 207 211 215 216 217 217 218 219 220 220 216 209 200 196 201 211 220 224 229 232 229 232 240
259 246 242 239 232 226 227 229 225 220 216 210 209 214 216 214 217 218 205 196 201 204 201 204 210 215 221 225 223 216 207 199 198 199 199 199 203 206 209 209 209 211 215 217 220 224 228 229 229 231 230 225 217 210 211 222 231 234 236 239 238 237 242
339 283 259 252 242 232 230 231 229 225 221 218 213 213 214 215 217 217 210 208 212 209 206 209 212 216 223 226 224 224 221 212 205 204 201 200 198 198 200 202 205 208 210 213 218 225 230 233 232 233 234 233 229 225 222 227 235 239 241 243 243 241 241
349 336 302 275 257 240 231 230 231 228 224 223 220 214 214 216 217 214 211 214 218 217 213 214 214 216 222 223 222 225 225 220 213 204 199 201 203 201 198 194 195 200 205 210 216 221 225 229 230 230 232 234 233 232 230 230 235 241 243 244 246 246 243
343 343 335 316 287 258 240 235 235 233 229 226 223 219 215 215 216 216 213 213 217 219 219 219 219 221 225 222 218 220 222 223 220 208 201 202 205 205 205 200 199 203 209 216 221 222 223 226 228 227 228 230 229 230 232 232 231 232 235 239 245 248 247
336 337 335 330 318 291 261 246 241 238 234 231 226 222 219 215 215 217 217 215 218 220 220 223 226 232 240 234 221 216 218 222 223 218 213 212 210 209 211 213 217 219 221 224 228 229 231 234 234 231 230 228 225 221 220 221 223 224 227 233 240 246 248
335 333 332 328 321 310 289 264 249 240 236 234 229 224 221 217 215 216 218 218 221 223 221 222 228 236 242 239 227 219 217 219 222 224 224 224 223 221 220 220 224 225 225 229 232 234 238 240 240 240 238 236 235 230 226 229 235 239 241 242 244 247 250
339 334 330 323 314 307 299 283 262 246 238 234 231 225 221 219 216 216 216 218 223 227 226 226 231 237 240 238 232 225 220 219 221 223 226 227 227 227 228 229 230 228 226 229 232 235 239 241 242 245 246 244 243 242 240 241 247 251 254 255 253 251 250
340 335 330 323 312 303 298 290 274 256 242 236 233 227 222 220 218 216 216 219 223 228 231 233 236 238 238 236 234 230 224 221 220 221 224 226 226 229 233 235 236 236 234 235 237 237 239 243 246 250 252 253 253 252 249 249 251 252 254 254 251 247 243
Height
1484 1485 1487 1488 1490 1492 1494 1496 1498 1499 1501 1502 1503 1503 1504 1506 1507 1508 1508 1509 1510 1512 1513 1514 1515 1515 1516 1516 1517 1518 1519 1520 1522 1525 1526 1527 1529 1532 1533 1535 1537 1538 1540 1542 1545 1547 1550 1553 1555 1558 1560 1562 1564 1566 1568 1570 1573 1575 1577 1579 1580 1582 1583
1483 1484 1486 1488 1489 1491 1493 1495 1497 1499 1500 1501 1502 1502 1503 1504 1505 1506 1507 1508 1508 1509 1510 1511 1511 1512 1511 1512 1513 1514 1515 1517 1519 1521 1522 1524 1526 1529 1531 1532 1534 1536 1538 1540 1543 1546 1548 1551 1553 1555 1557 1560 1562 1564 1566 1568 1570 1573 1575 1577 1578 1580 1581
1482 1484 1485 1487 1489 1491 1493 1494 1496 1498 1499 1500 1501 1501 1502 1503 1504 1504 1505 1506 1506 1507 1507 1508 1508 1508 1508 1509 1510 1510 1512 1514 1516 1517 1518 1520 1522 1525 1528 1530 1532 1534 1537 1539 1541 1544 1546 1549 1551 1553 1555 1557 1559 1562 1564 1566 1568 1570 1572 1574 1576 1578 1579
1482 1483 1484 1487 1488 1490 1492 1493 1495 1496 1497 1499 1500 1500 1501 1502 1502 1503 1503 1503 1504 1504 1504 1505 1504 1504 1505 1505 1506 1508 1509 1511 1512 1513 1515 1517 1519 1522 1524 1526 1529 1532 1534 1537 1539 1542 1545 1547 1549 1551 1553 1555 1557 1559 1562 1564 1566 1568 1570 1572 1574 1576 1577
1482 1482 1484 1485 1486 1489 1491 1492 1494 1495 1496 1497 1498 1499 1500 1500 1501 1501 1501 1501 1501 1501 1501 1501 1501 1501 1502 1502 1502 1504 1506 1507 1508 1510 1512 1514 1517 1519 1520 1523 1526 1528 1531 1534 1537 1540 1542 1545 1547 1549 1551 1553 1555 1557 1560 1562 1564 1566 1568 1570 1572 1574 1576
1481 1482 1483 1484 1486 1488 1490 1491 1493 1494 1495 1496 1497 1498 1498 1499 1499 1499 1499 1499 1499 1499 1498 1498 1498 1497 1498 1498 1498 1499 1500 1502 1504 1506 1508 1510 1512 1514 1517 1520 1522 1526 1529 1532 1535 1537 1540 1542 1545 1547 1549 1551 1553 1555 1558 1560 1562 1564 1566 1568 1570 1572 1573
1480 1481 1483 1484 1486 1488 1489 1490 1492 1492 1494 1495 1496 1497 1496 1497 1497 1497 1498 1497 1496 1496 1496 1495 1495 1494 1494 1494 1494 1495 1495 1497 1500 1502 1504 1506 1508 1511 1514 1517 1520 1523 1527 1530 1532 1535 1538 1540 1542 1545 1548 1550 1552 1554 1555 1558 1560 1562 1564 1565 1567 1569 1571
1480 1481 1483 1485 1486 1487 1488 1489 1490 1491 1493 1494 1494 1494 1495 1495 1496 1496 1496 1495 1495 1494 1494 1493 1493 1492 1491 1490 1490 1491 1492 1494 1496 1498 1500 1502 1504 1507 1512 1515 1517 1521 1525 1527 1530 1533 1535 1538 1541 1543 1546 1548 1550 1552 1553 1556 1558 1560 1561 1563 1565 1567 1569
1480 1482 1483 1485 1485 1486 1487 1487 1489 1490 1491 1492 1492 1492 1493 1493 1493 1494 1494 1493 1493 1492 1492 1492 1491 1490 1488 1487 1487 1488 1489 1490 1492 1494 1496 1498 1500 1504 1508 1512 1516 1519 1522 1525 1528 1531 1534 1537 1539 1542 1544 1547 1548 1550 1552 1553 1555 1557 1559 1561 1563 1565 1567
1479 1481 1482 1484 1484 1485 1486 1486 1488 1489 1489 1489 1489 1490 1491 1491 1491 1492 1492 1492 1491 1491 1491 1490 1489 1488 1486 1485 1485 1485 1485 1486 1488 1491 1492 1494 1496 1500 1505 1510 1514 1517 1520 1523 1526 1529 1531 1534 1536 1539 1542 1545 1546 1548 1549 1551 1553 1555 1556 1558 1560 1562 1564
1478 1481 1481 1482 1483 1484 1485 1485 1486 1487 1487 1488 1488 1488 1489 1489 1490 1490 1490 1490 1490 1489 1489 1489 1488 1486 1484 1483 1482 1482 1483 1483 1485 1487 1488 1490 1493 1497 1503 1508 1512 1515 1518 1521 1523 1526 1528 1531 1533 1535 1538 1541 1543 1545 1547 1548 1550 1552 1554 1556 1557 1559 1561
1478 1479 1480 1482 1482 1483 1484 1484 1484 1485 1485 1486 1486 1486 1487 1488 1489 1489 1489 1489 1489 1489 1488 1487 1487 1485 1483 1482 1481 1480 1481 1482 1483 1484 1484 1487 1490 1495 1500 1505 1509 1513 1516 1518 1521 1523 1525 1528 1530 1532 1535 1537 1539 1541 1544 1546 1548 1549 1551 1553 1555 1557 1559
1477 1479 1480 1481 1482 1482 1483 1483 1483 1484 1484 1484 1485 1485 1486 1487 1488 1488 1488 1488 1488 1488 1487 1487 1486 1485 1483 1482 1481 1480 1481 1482 1482 1482 1482 1484 1489 1494 1499 1503 1507 1510 1513 1516 1518 1519 1522 1525 1527 1530 1532 1534 1536 1538 1540 1543 1545 1547 1549 1551 1552 1554 1556
1477 1478 1479 1481 1481 1482 1482 1482 1482 1482 1482 1483 1484 1484 1485 1486 1487 1487 1487 1487 1487 1487 1487 1486 1486 1485 1484 1483 1482 1482 1482 1482 1483 1483 1483 1485 1490 1494 1498 1502 1506 1508 1511 1513 1515 1516 1519 1522 1525 1528 1529 1531 1533 1535 1537 1540 1542 1544 1546 1548 1550 1552 1553
1476 1477 1479 1480 1480 1481 1481 1481 1481 1481 1482 1482 1483 1484 1484 1485 1486 1486 1486 1486 1487 1487 1486 1486 1485 1485 1486 1485 1485 1484 1484 1484 1484 1485 1486 1488 1491 1494 1498 1501 1505 1508 1510 1511 1513 1515 1517 1521 1524 1526 1527 1529 1531 1533 1535 1537 1539 1541 1543 1546 1547 1549 1551
1475 1477 1478 1479 1479 1480 1480 1480 1480 1481 1481 1481 1482 1483 1483 1484 1485 1485 1486 1486 1486 1486 1485 1485 1485 1485 1486 1487 1486 1486 1485 1486 1486 1487 1488 1490 1492 1494 1497 1501 1504 1507 1509 1511 1513 1515 1517 1520 1523 1524 1526 1528 1529 1531 1532 1534 1536 1538 1541 1543 1545 1547 1548
1475 1476 1477 1478 1479 1479 1479 1480 1480 1480 1480 1481 1482 1482 1482 1483 1484 1484 1485 1485 1485 1485 1484 1484 1485 1486 1487 1487 1487 1486 1486 1488 1488 1489 1490 1491 1493 1496 1498 1501 1503 1505 1508 1510 1512 1514 1516 1518 1520 1523 1525 1526 1527 1529 1530 1532 1534 1536 1538 1540 1542 1544 1545
1474 1476 1476 1477 1478 1478 1479 1479 1479 1479 1480 1480 1481 1481 1481 1482 1483 1483 1484 1485 1485 1485 1484 1484 1485 1486 1487 1487 1486 1486 1487 1489 1490 1491 1491 1493 1495 1497 1499 1501 1503 1505 1507 1509 1510 1512 1514 1515 1517 1519 1522 1524 1526 1527 1528 1529 1531 1533 1535 1538 1539 1541 1542
1473 1475 1475 1476 1477 1477 1478 1478 1478 1479 1479 1479 1480 1480 1480 1481 1482 1483 1483 1484 1484 1484 1484 1484 1485 1486 1487 1488 1487 1487 1488 1490 1491 1491 1492 1493 1495 1496 1498 1500 1502 1503 1505 1507 1508 1510 1512 1514 1516 1517 1519 1522 1524 1525 1526 1527 1528 1530 1533 1535 1536 1538 1540
1472 1473 1474 1475 1476 1477 1477 1478 1478 1478 1478 1478 1479 1479 1480 1480 1481 1482 1483 1483 1484 1484 1483 1484 1484 1485 1487 1487 1488 1488 1488 1490 1490 1491 1491 1492 1494 1495 1497 1498 1500 1501 1503 1505 1506 1507 1509 1511 1514 1516 1518 1519 1521 1522 1524 1525 1526 1527 1530 1532 1534 1536 1537
1470 1472 1473 1474 1475 1476 1477 1477 1477 1478 1477 1478 1478 1478 1479 1479 1480 1481 1482 1482 1483 1483 1483 1483 1484 1485 1486 1487 1487 1488 1488 1489 1490 1490 1491 1492 1493 1494 1495 1497 1498 1499 1501 1502 1503 1504 1506 1508 1511 1513 1515 1516 1517 1519 1520 1522 1523 1525 1527 1529 1531 1533 1534
1469 1471 1472 1473 1474 1475 1476 1476 1477 1477 1477 1477 1477 1477 1478 1479 1479 1480 1481 1481 1482 1482 1483 1483 1483 1484 1485 1486 1487 1488 1488 1489 1489 1490 1490 1491 1492 1493 1494 1495 1496 1498 1499 1500 1501 1502 1504 1506 1508 1510 1511 1512 1514 1515 1517 1519 1521 1522 1524 1527 1528 1529 1530
1469 1471 1471 1472 1473 1474 1476 1476 1476 1477 1477 1477 1477 1477 1477 1478 1479 1480 1480 1481 1481 1481 1482 1482 1483 1483 1484 1485 1486 1487 1488 1488 1489 1489 1490 1490 1491 1492 1492 1493 1495 1496 1497 1498 1499 1501 1502 1504 1506 1507 1508 1509 1510 1512 1514 1516 1518 1520 1522 1524 1525 1525 1528
1469 1470 1471 1472 1473 1474 1475 1475 1476 1476 1476 1476 1476 1477 1477 1478 1478 1479 1480 1480 1480 1481 1481 1481 1482 1483 1483 1484 1485 1486 1486 1487 1488 1488 1489 1490 1490 1491 1492 1492 1493 1494 1495 1496 1497 1499 1500 1501 1503 1504 1506 1507 1508 1510 1512 1514 1516 1518 1520 1521 1522 1523 1525
1468 1470 1471 1472 1473 1473 1474 1475 1475 1475 1475 1475 1476 1476 1477 1477 1478 1479 1479 1480 1480 1480 1480 1481 1482 1482 1483 1483 1484 1485 1485 1486 1487 1487 1488 1489 1489 1490 1491 1491 1492 1493 1494 1495 1496 1497 1498 1499 1501 1502 1503 1505 1507 1508 1510 1512 1513 1515 1517 1518 1520 1521 1522
1467 1469 1470 1471 1472 1473 1473 1474 1474 1475 1475 1475 1475 1476 1476 1477 1477 1478 1479 1479 1480 1480 1480 1481 1481 1482 1482 1483 1483 1484 1484 1485 1486 1486 1487 1488 1489 1489 1490 1490 1491 1492 1493 1494 1494 1495 1497 1498 1499 1500 1501 1503 1504 1506 1507 1509 1510 1512 1514 1516 1517 1519 1520
1466 1468 1469 1471 1471 1472 1473 1473 1474 1474 1474 1475 1475 1475 1476 1477 1477 1478 1479 1479 1480 1480 1480 1481 1481 1482 1483 1483 1483 1483 1484 1484 1485 1485 1486 1487 1488 1488 1489 1489 1490 1491 1492 1493 1493 1494 1495 1496 1497 1498 1499 1501 1502 1503 1505 1506 1508 1509 1511 1512 1514 1515 1517
1465 1467 1469 1470 1470 1471 1472 1472 1473 1474 1474 1474 1474 1475 1475 1476 1477 1478 1478 1479 1480 1480 1480 1481 1482 1482 1483 1483 1483 1483 1483 1483 1484 1484 1485 1486 1486 1487 1488 1488 1489 1490 1491 1491 1492 1493 1494 1495 1496 1497 1498 1499 1500 1501 1503 1504 1505 1507 1508 1509 1510 1512 1513
1464 1466 1468 1469 1470 1470 1471 1472 1472 1473 1473 1474 1474 1474 1475 1476 1477 1477 1478 1479 1480 1480 1480 1481 1482 1482 1482 1483 1483 1483 1483 1483 1483 1483 1484 1484 1485 1486 1486 1487 1488 1489 1489 1490 1491 1491 1492 1493 1494 1496 1496 1497 1498 1500 1501 1503 1504 1505 1507 1508 1509 1510 1511
1463 1465 1466 1467 1469 1470 1470 1471 1472 1472 1473 1473 1473 1474 1474 1475 1476 1477 1478 1479 1479 1480 1480 1481 1481 1482 1482 1482 1483 1483 1483 1483 1483 1483 1483 1484 1484 1485 1485 1486 1487 1487 1488 1489 1489 1490 1491 1492 1493 1494 1495 1496 1498 1499 1500 1501 1502 1504 1505 1506 1507 1508 1509
1463 1464 1465 1466 1468 1468 1469 1470 1471 1472 1473 1473 1473 1473 1474 1475 1476 1476 1477 1478 1478 1479 1480 1480 1481 1481 1482 1482 1482 1483 1483 1483 1483 1483 1483 1483 1484 1484 1485 1485 1486 1486 1487 1488 1488 1489 1490 1491 1492 1493 1494 1496 1497 1498 1499 1500 1501 1502 1504 1505 1506 1507 1508
1464 1463 1463 1464 1466 1467 1468 1469 1470 1471 1472 1472 1473 1473 1474 1475 1475 1476 1477 1477 1477 1478 1479 1480 1480 1480 1481 1481 1481 1482 1482 1483 1483 1483 1483 1483 1484 1484 1484 1485 1485 1486 1486 1487 1488 1488 1489 1490 1490 1491 1493 1494 1496 1497 1498 1499 1500 1501 1502 1503 1504 1505 1506
1465 1463 1463 1463 1464 1465 1466 1467 1468 1470 1471 1472 1472 1473 1473 1474 1475 1475 1476 1476 1477 1478 1478 1479 1479 1479 1480 1480 1480 1481 1481 1482 1482 1483 1483 1483 1483 1484 1484 1485 1485 1486 1486 1486 1487 1488 1488 1489 1489 1490 1491 1493 1494 1495 1497 1498 1499 1499 1500 1501 1502 1503 1505
1464 1463 1462 1462 1462 1463 1464 1466 1467 1468 1469 1470 1472 1472 1473 1473 1474 1475 1475 1476 1476 1477 1477 1478 1478 1479 1479 1479 1480 1480 1481 1481 1482 1482 1482 1483 1483 1484 1484 1485 1485 1485 1486 1486 1487 1487 1488 1488 1488 1489 1490 1491 1492 1494 1495 1496 1497 1497 1498 1499 1499 1500 1502
1462 1462 1461 1460 1461 1462 1463 1464 1465 1466 1467 1469 1470 1471 1472 1472 1473 1474 1474 1475 1476 1476 1476 1477 1478 1478 1479 1479 1479 1479 1480 1480 1481 1481 1482 1482 1483 1483 1484 1484 1485 1485 1485 1486 1486 1486 1487 1487 1488 1488 1489 1490 1491 1492 1493 1494 1495 1496 1496 1497 1498 1498 1499
1460 1459 1457 1457 1458 1459 1460 1461 1463 1464 1466 1468 1469 1470 1470 1471 1472 1473 1473 1474 1475 1475 1476 1476 1477 1477 1478 1478 1478 1479 1479 1479 1480 1481 1481 1482 1482 1483 1484 1484 1484 1485 1485 1485 1486 1486 1486 1487 1487 1487 1488 1489 1490 1491 1492 1493 1493 1494 1494 1495 1496 1496 1497
1458 1456 1454 1454 1455 1456 1457 1459 1460 1461 1463 1465 1466 1468 1469 1470 1471 1472 1472 1473 1473 1474 1474 1475 1475 1476 1476 1477 1477 1478 1478 1479 1479 1480 1481 1481 1482 1482 1483 1483 1484 1484 1484 1485 1485 1485 1486 1486 1486 1487 1487 1488 1489 1490 1491 1491 1492 1492 1493 1493 1494 1495 1495
1456 1454 1452 1452 1452 1453 1454 1456 1458 1460 1462 1464 1465 1466 1467 1469 1470 1470 1471 1472 1472 1472 1473 1473 1473 1474 1475 1475 1476 1476 1477 1478 1479 1479 1480 1481 1481 1482 1482 1483 1483 1483 1484 1484 1484 1485 1485 1485 1486 1486 1486 1487 1487 1488 1489 1489 1490 1491 1491 1492 1492 1493 1493